Location: Central Falls
(41.8900°N, 71.3929°W)
Time: 08:25:28
(UTC+00:00)

Altair - Pass Details

Date: 10 December 2023
Orbit: 1501 x 1682 km, 47.2° (Epoch: 29 February)

Event Time Altitude Azimuth Distance (km) Brightness Sun altitude
Rises 19:13:40 0° 294° (WNW) 4,693 10.2 15.9°
Reaches altitude 10° 19:17:20 10° 282° (WNW) 3,687 9.9 15.5°
Maximum altitude 19:24:30 26° 231° (SW) 2,612 10.7 14.7°
Drops below altitude 10° 19:31:36 10° 179° (S) 3,641 10.4 13.8°
Sets 19:35:15 0° 167° (SSE) 4,624 10.5 13.4°
